Regional Weather Roundup
Issued by NWS Wakefield, VA

Home | Current Version | Previous Version | Graphics & Text | Print | Product List | Glossary On
Versions: 1 2 3 4 5 6 7 8 9 10 11 12 13 14 15 16 17 18 19 20 21 22 23 24 25 26 27 28 29 30 31 32 33 34 35 36 37 38 39 40 41 42 43 44 45 46 47 48 49 50
000
ASUS41 KAKQ 261513
RWRAKQ

REGIONAL WEATHER ROUNDUP
NATIONAL WEATHER SERVICE WAKEFIELD VA
1100 AM EDT WED JUL 26 2017

Note: "fair" indicates few or no clouds below 12,000 feet with no
significant weather and/or obstructions to visibility. * = Denotes
station may not report precipitation (e.g., rain,snow,etc.),
thunder or fog.

VAZ042-051-052>054-056-261600-
NORTHERN VIRGINIA

CITY           SKY/WX    TMP DP  RH WIND       PRES   REMARKS
WASH NATIONAL  MOSUNNY   78  63  59 CALM      30.21S
DULLES         PTSUNNY   76  62  62 CALM      30.22S
FORT BELVOIR   SUNNY     81  62  51 E3        30.20F
QUANTICO       MOSUNNY   79  65  62 CALM      30.21S
FREDERICKSBRG* SUNNY     78  67  67 CALM      30.20S
STAFFORD*      PTSUNNY   76  66  71 CALM      30.24F
WARRENTON      MOSUNNY   79  58  48 CALM      30.21S
CULPEPER*      MOSUNNY   77  62  58 CALM      30.22S
MANASSAS*      SUNNY     77  64  64 NW3       30.22S
LEESBURG*      PTSUNNY   75  66  73 NE3       30.23S
WINCHESTER     PTSUNNY   72  61  68 SE5       30.22F
FRONT ROYAL*   MOSUNNY   73  61  64 E3        30.21F
LURAY*         SUNNY     73  61  64 SW6       30.23S
$$

VAZ048-049-060>072-079>083-261600-
CENTRAL AND SOUTH CENTRAL VIRGINIA

CITY           SKY/WX    TMP DP  RH WIND       PRES   REMARKS
RICHMOND       MOSUNNY   79  66  64 SW3       30.20F
CHESTERFIELD*  NOT AVBL
PETERSBURG*    MOSUNNY   80  63  56 CALM      30.22R
HANOVER        MOSUNNY   80  64  58 CALM      30.22S
TAPPAHANNOCK*  PTSUNNY   83  59  43 SW6       30.21S
QUINTON*       PTSUNNY   78  67  69 CALM      30.21R
CHARLOTTSVILLE MOSUNNY   77  61  57 S5        30.22F
GORDONSVILLE*  MOSUNNY   76  62  62 CALM      30.21S
ORANGE*        SUNNY     75  61  60 CALM      30.21F
LOUISA*        PTSUNNY   75  61  60 CALM      30.21S
BUMPASS*       PTSUNNY   78  65  62 CALM      30.21S
FARMVILLE*     SUNNY     81  57  43 CALM      30.20F
CREWE*         FAIR      79  60  51 SE3       30.22S
FORT PICKETT*  FAIR     N/A N/A N/A S8        30.21F
CHASE CITY*    FAIR      79  64  59 CALM      30.21S
CLARKSVILLE*   FAIR      79  64  61 CALM      30.21F
SOUTH HILL*    SUNNY     78  66  66 CALM      30.26F
LAWRENCEVILLE* FAIR      80  65  61 E6        30.20F
EMPORIA*       MOSUNNY   81  64  57 NE6       30.22S
$$

VAZ088>098-261600-
SOUTHEAST VIRGINIA

CITY           SKY/WX    TMP DP  RH WIND       PRES   REMARKS
NORFOLK        MOSUNNY   79  67  66 NE8       30.20S
VIRGINIA BEACH PTSUNNY   78  67  68 E10       30.20R
NORFOLK NAVAL  MOSUNNY   82  67  60 NE10      30.21S
WEST POINT*    PTSUNNY   79  65  62 W7        30.22R
SALUDA*        FAIR      77  68  75 CALM      30.20R
NEWPORT NEWS   SUNNY     81  65  58 E8        30.20R
LANGLEY AFB    MOSUNNY   79  68  67 E8        30.21R
FORT EUSTIS    PTSUNNY   82  69  65 SW5       30.18R
WILLIAMSBURG*  MOSUNNY   82  68  61 CALM      30.21S
HR EXEC AP*    PTSUNNY   81  66  61 CALM      30.18R
FRANKLIN*      PTSUNNY   81  66  61 NE5       30.21S
US460-WAKEFLD  SUNNY     80  67  64 CALM      30.20F
$$

VAZ020-022-025-037-045-261600-
WEST CENTRAL AND SOUTHWEST VIRGINIA

CITY           SKY/WX    TMP DP  RH WIND       PRES   REMARKS
STAUNTON*      CLOUDY    73  59  62 SW5       30.26S
WAYNESBORO*    CLOUDY    73  62  68 CALM      30.25S
HOT SPRINGS VA CLOUDY    61  52  72 CALM      30.33R
LYNCHBURG      MOSUNNY   75  62  64 CALM      30.24S
DANVILLE       SUNNY     76  67  73 VRB3      30.22F
SOUTH BOSTON*  FAIR      79  64  60 CALM      30.21F
MARTINSVILLE   CLOUDY    75  63  65 E5        30.26F
ROANOKE        CLOUDY    72  60  66 SE6       30.26F
BLACKSBURG     CLOUDY    68  60  73 E5        30.30S
DUBLIN*        CLOUDY    70  57  64 CALM      30.28S
MARION*        CLOUDY    68  62  80 E5        30.30S
HILLSVILLE*    CLOUDY    68  59  73 CALM      30.28S
RICHLANDS*     CLOUDY    75  64  69 SE5       30.25R
WISE*          MOSUNNY   77  61  57 SW3       30.25S
ABINGDON*      PTSUNNY   78  66  66 E3        30.23R
$$

MDZ021>025-VAZ099-100-261600-
SOUTHERN MARYLAND AND THE DELMARVA PENINSULA

CITY           SKY/WX    TMP DP  RH WIND       PRES   REMARKS
PATUXENT RIVER PTSUNNY   78  68  71 VRB6      30.21R
BAY BRIDGE APT CLOUDY    77  66  69 SE8       30.22R
LEONARDTOWN    CLOUDY    73  66  78 E3        30.23R
DOVER          PTSUNNY   71  71 100 NE7       30.23R
GEORGETOWN     CLOUDY    73  65  75 N6        30.23R
EASTON         PTSUNNY   77  66  69 E6        30.26R
CAMBRIDGE      PTSUNNY   77  66  69 NE5       30.21R
SALISBURY      CLOUDY    78  67  68 NE7       30.21R
OCEAN CITY     LGT RAIN  71  67  87 E6        30.22R
WALLOPS ISLAND PTSUNNY   78  66  66 MISG      30.21S
ACCOMACK*      MOSUNNY   79  67  66 E6        30.21R
$$

NCZ012>017-030>032-261600-
NORTH CENTRAL AND EASTERN NORTH CAROLINA

CITY           SKY/WX    TMP DP  RH WIND       PRES   REMARKS
ROANOKE RAPIDS PTSUNNY   79  66  65 NE3       30.20S
RALEIGH        MOSUNNY   82  64  54 VRB5      30.21R
ELIZABETH CITY MOSUNNY   81  69  67 E9        30.20R
AHOSKIE*         N/A     78  68  71 NE3       30.20R
EDENTON*       MOSUNNY   82  69  66 E7        30.19S
CURRITUCK*     MOSUNNY   79  67  68 E8        30.21R
KILL DEVIL HLS SUNNY     79  66  64 CALM      30.18R
MANTEO         SUNNY     78  66  66 E9        30.19R
CAPE HATTERAS  CLOUDY    81  67  62 NE8G18    30.16S
TARBORO*       NOT AVBL
GOLDSBORO      PTSUNNY   82  68  61 E9        30.17S
WASHINGTON     SUNNY     81  67  61 E8        30.19R
GREENVILLE     SUNNY     81  66  61 E5        30.19S
NEW BERN       CLOUDY    82  72  71 NE9       30.17S
WILMINGTON     CLOUDY    81  70  69 NE12      30.13F
$$

VAZ048-261600-
ELSEWHERE

CITY           SKY/WX    TMP DP  RH WIND       PRES   REMARKS
HARRISBURG PA  PTSUNNY   75  64  68 CALM      30.21F
BALTIMORE      PTSUNNY   74  66  76 NE5       30.21F
ANNAPOLIS      PTSUNNY   76  71  85 E8        30.20F
ANDREWS AFB    SUNNY     77  63  62 CALM      30.20S
PHILADELPHIA   CLOUDY    75  63  66 E7        30.24S
HENDERSON NC   MOSUNNY   78  61  55 E5        30.22S
GREENSBORO     CLOUDY    76  66  71 E3        30.22S
ROCKY MOUNT    MOSUNNY   81  70  69 E6        30.20S
$$

VAZ100-261600-
MARINE

STATION/POSITION TIME  TEMP    WIND        PRES    WAVE   SWELL
                       AIR SEA DIR/SP/G            HT/PER HT/PER
                 (UTC) (F)     (DEG/KT/KT) (MB)    (FT/S) (FT/S)
BRANDYWINE LGT   1442   72      80/ 10/ 11 1023.9R
CAPE MAY NJ      1448   73 75   80/  8/ 11 1023.2R
LEWES DE         1448   72 75   70/ 11/ 13 1023.4R
15NM E FENWICK I 1450   73 76   30/ 12/ 14 1023.4R   3/ 5   2/11
OCEAN-CITY-INLET 1448   71 72  110/  5/  8 1023.7R
WACHAPREAGUE VA  1448   75 78   90/  5/  7 1023.1R
THOMAS POINT MD  1500   74 81  110/  6/  8   N/A
GOOSES REEF MD   1500   76 82   90/  4/  6 1023.9    1
COVE POINT MD    1448   75     110/  3/  5 1023.6R
SOLOMONS ISLAND  1448   75 84   80/  7/  9   N/A
BISHOPS HEAD MD  1448   76 79  130/  4/  5 1023.1R
PINEY POINT MD   1448          140/  4/  5   N/A
CAMBRIDGE MD     1448   76 84              1023.9R
LEWISETTA VA     1448   77 83  120/  3/  5 1022.7R
RAPPAHANNOCK LGT 1448           CALM  /  2 1023.5R
STINGRAY PT      1450   77     140/  6/  8 1023.2R
YORK RVR RNG VA  1448   76     150/  6/  8 1023.3R
YORKTOWN VA      1448   76 82   90/ 10/ 11 1022.4R
JAMESTOWN VA     1500      86  170/  4/  6   N/A     0
DOMINION TERM VA 1448   79      50/  2/  5 1022.9R
KIPTOPEKE VA     1448      77  120/  7/  9   N/A
CHES BAY BRIDGE  1448   74 75   90/  9/  9 1022.8R
CAPE HENRY VA    1448   76      80/  4/  5   N/A
WILLOUBY STN VA  1448   75      80/  9/ 11 1022.8R
S CRANEY ISL VA  1448   79      50/  5/  7 1022.5R
CAPE HENRY BUOY  1500      73                N/A     3/ 6
1ST LANDING BUOY 1500   75 77              1022.8    2/ 3
64NM E OF VA BCH 1450   75 78   50/ 12/ 14 1022.8R   3/ 6   2/ 6
DUCK PIER NC     1448   76 75   70/ 10/ 11 1022.1R
44100 DUCK FRF   1405      77                N/A     4/ 6
44056 DUCK FRF   1500      74                N/A     4/ 6
OREGON INLET NC  1436   77 72   50/ 10/ 14 1021.8R
HATTERAS NC      1448   78 77   60/ 12/ 14 1021.3R
DIAMOND SHLS NC  1450   81 83   50/ 12/ 14 1020.6R   3/ 5   2/ 7
CAPE LOOKOUT NC  1500   79      40/ 15/ 18 1020.7R
$$



USA.gov is the U.S. government's official web portal to all federal, state and local government web resources and services.